Location: Unspecified
(0.0000°N, 0.0000°E)
Time: 17:02:12
(UTC+00:00)

Hubble Space Telescope - Pass Details

Date: 21 March 2019
Orbit: 537 x 540 km, 28.5° (Epoch: 23 May)

Event Time Altitude Azimuth Distance (km) Brightness Sun altitude
Exits shadow 05:26:22 - 304° (NW) 1,846 3.0 -10.2°
Reaches altitude 10° 05:26:33 10° 304° (NW) 1,777 2.9 -10.2°
Maximum altitude 05:30:39 76° 30° (NNE) 550 0.9 -9.2°
Drops below altitude 10° 05:34:46 10° 116° (ESE) 1,780 4.6 -8.1°
Sets 05:37:02 0° 118° (ESE) 2,671 5.6 -7.6°
